Regional Weather Roundup
Issued by NWS Green Bay, WI

Home | Current Version | Previous Version | Text Only | Print | Product List | Glossary On
Versions: 1 2 3 4 5 6 7 8 9 10 11 12 13 14 15 16 17 18 19 20 21 22 23 24 25 26 27 28 29 30 31 32 33 34 35 36 37 38 39 40 41 42 43 44 45 46 47 48 49 50
000
ASUS43 KGRB 061300
RWRGRB

NORTH-CENTRAL AND NORTHEAST WISCONSIN REGIONAL WEATHER ROUNDUP
NATIONAL WEATHER SERVICE GREEN BAY WI
800 AM CDT FRI MAY 06 2016

WIZ005-009-010>012-018-019-061400-
NORTH CENTRAL WISCONSIN

CITY           SKY/WX    TMP DP  RH WIND       PRES   REMARKS
IRONWOOD         N/A     66  45  45 W8        29.78S
MANITOWISH WTR NOT AVBL
ARBOR VITAE    NOT AVBL
EAGLE RIVER    NOT AVBL
LAND O LAKES   NOT AVBL
RHINELANDER    NOT AVBL
PHILLIPS       NOT AVBL
ANTIGO         NOT AVBL
TOMAHAWK       NOT AVBL
MERRILL        NOT AVBL
$$

WIZ013-073-061400-
NORTHEAST WISCONSIN

CITY           SKY/WX    TMP DP  RH WIND       PRES   REMARKS
IRON MOUNTAIN  NOT AVBL
MARINETTE      SUNNY     59  41  51 SE9       29.87F
$$

WIZ017-030-035>037-045-061400-
CENTRAL WISCONSIN

CITY           SKY/WX    TMP DP  RH WIND       PRES   REMARKS
MEDFORD        NOT AVBL
WAUSAU         NOT AVBL
MOSINEE        MOSUNNY   54  43  66 S7        29.89S
MARSHFIELD     NOT AVBL
WISC RAPIDS    NOT AVBL
STEVENS POINT  NOT AVBL
WAUPACA        NOT AVBL
SHAWANO        NOT AVBL
CLINTONVILLE   NOT AVBL
WAUTOMA        CLOUDY    56  40  55 CALM      29.92S
$$

WIZ038-039-048-051-061400-
FOX VALLEY

CITY           SKY/WX    TMP DP  RH WIND       PRES   REMARKS
NWS GREEN BAY  NOT AVBL
APPLETON       PTSUNNY   55  39  54 SW7       29.90R
OSHKOSH        SUNNY     57  40  52 SW9G18    29.92R
FOND DU LAC    SUNNY     61  39  44 SW13      29.92F
$$

WIZ022-050-052-061400-
EAST CENTRAL WISCONSIN

CITY           SKY/WX    TMP DP  RH WIND       PRES   REMARKS
EPHRAIM        NOT AVBL
STURGEON BAY   SUNNY     57  43  58 SW8       29.91S
MANITOWOC      NOT AVBL
SHEBOYGAN      SUNNY     58  42  55 SW8       29.93S
$$

LMZ563-521-522-541>543-061400-
LAKESHORE

STATION/POSITION TIME  TEMP    WIND        PRES    VSBY  WAVE
                       AIR SEA DIR/SP/G                  HT/PER
                 (UTC) (F)     (DEG/KT/KT) (MB)    (MI)  (FT/S)
SHEBOYGAN LKSHOR 1200   52     200/  7/  7 1013.9S
KEWAUNEE LKSHORE 1200   47     170/  6/  7 1012.1R
ALGOMA MARINA    1215          210/  9/ 10   N/A
NORTHPORT PIER   1200   47     150/  5/  6 1012.2R
N MID LAKE BUOY  1150   41 39  190/ 12/ 14 1012.6R         1/ 3
CHAMBERS ISLAND  1200   55     180/  7/ 14 1011.9S
MENOMINEE LKSHOR 1200   53     190/  7/  9 1010.8R
$$




USA.gov is the U.S. government's official web portal to all federal, state and local government web resources and services.